Ozark, AL

8:09 PM CDT on March 28, 2017 (GMT -0500)
Cairns Army Air Field

Weather History for KOZR - June, 2013

Change the Weather History Date:

Tuesday, June 18, 2013

  Actual Average Record
Temperature  
Mean Temperature 80 °F -  
Max Temperature 89 °F 85 °F 100 °F (1998)
Min Temperature 71 °F 66 °F 64 °F (2001)
Cooling Degree Days 15    
Growing Degree Days 30 (Base 50)    
Moisture  
Dew Point 73 °F    
Average Humidity 84    
Maximum Humidity 100    
Minimum Humidity 58    
Precipitation  
Precipitation 0.18 in - - ()
Sea Level Pressure  
Sea Level Pressure 29.97 in    
Wind  
Wind Speed 8 mph (SSW)    
Max Wind Speed 28 mph    
Max Gust Speed 34 mph    
Visibility 9 miles    
Events Rain , Thunderstorm    
Averages and records for this station are not official NWS values.
T = Trace of Precipitation, MM = Missing Value Source: NWS Daily Summary

Daily Weather History Graph

Daily Weather History Graph

Search for Another Location

Airport or City:

Trip Planner

Search our weather history database for the weather conditions in past years. The results will help you decide how hot, cold, wet, or windy it might be!

Date:

Astronomy

Jun. 18, 2013 Rise Set
Actual Time 5:38 AM CDT 7:49 PM CDT
Civil Twilight 5:10 AM CDT 8:17 PM CDT
Nautical Twilight 4:36 AM CDT 8:51 PM CDT
Astronomical Twilight 3:59 AM CDT 9:28 PM CDT
Moon 2:47 PM CDT (6/18) 1:30 AM CDT (6/18)
Length of Visible Light 15h 06m
Length of Day
14h 10m
Waxing Gibbous, 71% of the Moon is Illuminated
Jun 18
Waxing Gibbous
Jun 23
Full
Jun 29
Last Quarter
Jul 8
New
Jul 15
First Quarter

Hourly Weather History & Observations

Time (CDT) Temp. Heat Index Dew Point Humidity Pressure Visibility Wind Dir Wind Speed Gust Speed Precip Events Conditions
12:58 AM 72.5 °F - 71.6 °F 97% 29.98 in 10.0 mi South 4.6 mph - 0.01 in   Scattered Clouds
1:58 AM 73.4 °F - 73.0 °F 99% 29.96 in 7.0 mi South 5.8 mph - N/A   Overcast
2:35 AM 73.4 °F - 73.4 °F 100% 29.96 in 7.0 mi South 4.6 mph - N/A   Overcast
2:58 AM 74.1 °F - 73.8 °F 99% 29.96 in 6.0 mi South 6.9 mph - N/A   Mostly Cloudy
3:03 AM 73.4 °F - 73.4 °F 100% 29.96 in 6.0 mi South 5.8 mph - N/A   Mostly Cloudy
3:58 AM 74.3 °F - 74.1 °F 99% 29.96 in 4.0 mi SSW 5.8 mph - N/A   Overcast
4:48 AM 75.2 °F - 75.2 °F 100% 29.97 in 9.0 mi SSW 6.9 mph - N/A   Overcast
4:58 AM 74.7 °F - 74.3 °F 99% 29.97 in 10.0 mi South 6.9 mph - N/A   Overcast
5:58 AM 73.9 °F - 73.8 °F 99% 29.98 in 7.0 mi South 4.6 mph - N/A   Mostly Cloudy
6:03 AM 73.4 °F - 73.4 °F 100% 29.98 in 6.0 mi South 4.6 mph - N/A   Mostly Cloudy
6:58 AM 75.0 °F - 74.8 °F 99% 30.00 in 10.0 mi South 5.8 mph - N/A   Scattered Clouds
7:58 AM 78.1 °F - 75.4 °F 91% 30.01 in 10.0 mi SSW 6.9 mph - N/A   Partly Cloudy
8:28 AM 78.8 °F - 75.2 °F 89% 30.02 in 10.0 mi SW 8.1 mph - N/A   Mostly Cloudy
8:33 AM 80.6 °F 86.2 °F 75.2 °F 84% 30.02 in 10.0 mi SSW 10.4 mph - N/A   Mostly Cloudy
8:43 AM 80.6 °F 86.2 °F 75.2 °F 84% 30.02 in 10.0 mi SW 9.2 mph - N/A   Mostly Cloudy
8:48 AM 80.6 °F 86.2 °F 75.2 °F 84% 30.01 in 10.0 mi SW 8.1 mph - N/A   Mostly Cloudy
8:58 AM 81.0 °F 86.9 °F 75.4 °F 83% 30.02 in 10.0 mi WSW 8.1 mph - N/A   Mostly Cloudy
9:58 AM 83.1 °F 90.7 °F 75.4 °F 77% 30.01 in 10.0 mi SW 10.4 mph - N/A   Overcast
10:33 AM 86.0 °F 95.1 °F 75.2 °F 70% 30.01 in 10.0 mi West 10.4 mph - N/A   Overcast
10:51 AM 82.4 °F 89.5 °F 75.2 °F 79% 30.01 in 6.0 mi WSW 15.0 mph - N/A Rain Light Rain
10:58 AM 80.8 °F 86.5 °F 75.0 °F 83% 30.01 in 6.0 mi WSW 11.5 mph - 0.00 in Rain Light Rain
11:01 AM 80.6 °F 86.2 °F 75.2 °F 84% 30.01 in 9.0 mi WSW 12.7 mph 18.4 mph N/A   Mostly Cloudy
11:09 AM 80.6 °F 84.6 °F 71.6 °F 74% 30.01 in 10.0 mi WSW 9.2 mph 19.6 mph N/A   Light Drizzle
11:12 AM 80.6 °F 85.4 °F 73.4 °F 79% 30.01 in 10.0 mi WSW 10.4 mph 19.6 mph N/A   Mostly Cloudy
11:13 AM 80.6 °F 85.4 °F 73.4 °F 79% 30.01 in 10.0 mi WSW 10.4 mph - N/A   Light Drizzle
11:28 AM 78.8 °F - 71.6 °F 78% 30.01 in 10.0 mi SW 8.1 mph - N/A   Mostly Cloudy
11:58 AM 80.6 °F 85.5 °F 73.9 °F 80% 30.00 in 10.0 mi SSW 12.7 mph - 0.00 in   Mostly Cloudy
12:58 PM 86.0 °F 93.8 °F 73.9 °F 67% 29.97 in 10.0 mi SW 9.2 mph - N/A   Overcast
1:58 PM 87.3 °F 95.8 °F 74.3 °F 65% 29.95 in 10.0 mi South 9.2 mph - N/A   Mostly Cloudy
2:16 PM 89.6 °F 98.2 °F 73.4 °F 59% 29.95 in 10.0 mi SW 12.7 mph - N/A Thunderstorm Thunderstorm
2:28 PM 86.0 °F 95.1 °F 75.2 °F 70% 29.95 in 10.0 mi South 17.3 mph 25.3 mph N/A Thunderstorm Thunderstorm
2:31 PM 86.0 °F 93.4 °F 73.4 °F 66% 29.95 in 10.0 mi South 18.4 mph 25.3 mph N/A   Mostly Cloudy
2:58 PM 85.3 °F 92.2 °F 73.4 °F 67% 29.94 in 10.0 mi SSW 15.0 mph - N/A   Partly Cloudy
3:11 PM 86.0 °F 93.4 °F 73.4 °F 66% 29.94 in 10.0 mi SSW 17.3 mph - N/A Thunderstorm Thunderstorm
3:26 PM 87.8 °F 93.8 °F 71.6 °F 58% 29.94 in 10.0 mi South 16.1 mph - N/A   Clear
3:58 PM 85.3 °F 91.8 °F 72.7 °F 66% 29.93 in 10.0 mi SSW 12.7 mph - N/A   Scattered Clouds
4:53 PM 87.8 °F 93.8 °F 71.6 °F 58% 29.91 in 10.0 mi SSW 10.4 mph - N/A Thunderstorm Thunderstorm
4:58 PM 87.3 °F 93.6 °F 72.0 °F 60% 29.91 in 10.0 mi SSW 10.4 mph - N/A Thunderstorm Thunderstorm
5:08 PM 87.8 °F 93.8 °F 71.6 °F 58% 29.90 in 10.0 mi SSW 12.7 mph - N/A   Partly Cloudy
5:58 PM 87.4 °F 94.8 °F 72.9 °F 62% 29.91 in 10.0 mi South 12.7 mph - N/A   Scattered Clouds
6:50 PM 84.2 °F 89.6 °F 71.6 °F 66% 29.96 in 10.0 mi NW 27.6 mph 32.2 mph N/A   Scattered Clouds
6:52 PM 82.4 °F 87.2 °F 71.6 °F 70% 29.95 in 9.0 mi NNW 23.0 mph 34.5 mph N/A Rain , Thunderstorm Thunderstorms and Rain
6:58 PM 79.7 °F - 72.5 °F 79% 29.95 in 7.0 mi NNW 16.1 mph 34.5 mph 0.01 in Rain , Thunderstorm Thunderstorms and Rain
7:12 PM 71.6 °F - 69.8 °F 94% 29.96 in 7.0 mi NNW 8.1 mph - N/A Rain , Thunderstorm Rain
7:22 PM 71.6 °F - 68.0 °F 88% 29.96 in 2.0 mi Calm Calm - N/A Rain Heavy Rain
7:24 PM 71.6 °F - 68.0 °F 88% 29.95 in 1.8 mi Variable 1.2 mph - N/A Rain , Thunderstorm Heavy Thunderstorms and Rain
7:34 PM 71.6 °F - 69.8 °F 94% 29.95 in 2.0 mi Variable 2.3 mph - N/A Rain , Thunderstorm Light Thunderstorms and Rain
7:39 PM 71.6 °F - 69.8 °F 94% 29.95 in 6.0 mi Variable 2.3 mph - N/A Rain Light Rain
7:46 PM 71.6 °F - 69.8 °F 94% 29.95 in 10.0 mi Variable 1.2 mph - N/A   Mostly Cloudy
7:58 PM 71.6 °F - 70.0 °F 95% 29.96 in 10.0 mi SSE 4.6 mph - 0.16 in   Mostly Cloudy
8:40 PM 71.6 °F - 71.6 °F 100% 29.98 in 10.0 mi Variable 1.2 mph - N/A Rain Light Rain
8:50 PM 71.6 °F - 71.6 °F 100% 29.98 in 10.0 mi SSE 5.8 mph - N/A Rain , Thunderstorm Light Thunderstorms and Rain
8:53 PM 71.6 °F - 71.6 °F 100% 29.97 in 10.0 mi SSE 5.8 mph - N/A Thunderstorm Thunderstorm
8:58 PM 72.0 °F - 70.7 °F 96% 29.97 in 10.0 mi SSE 4.6 mph - 0.00 in Thunderstorm Thunderstorm
9:05 PM 71.6 °F - 71.6 °F 100% 29.97 in 10.0 mi Variable 1.2 mph - N/A   Overcast
9:58 PM 72.5 °F - 71.6 °F 97% 29.97 in 10.0 mi South 4.6 mph - N/A   Partly Cloudy
10:00 PM 71.6 °F - 71.6 °F 100% 29.97 in 10.0 mi SSE 4.6 mph - N/A   Light Drizzle
10:09 PM 71.6 °F - 71.6 °F 100% 29.97 in 10.0 mi SSE 3.5 mph - N/A   Clear
10:58 PM 72.7 °F - 71.4 °F 96% 29.98 in 10.0 mi South 3.5 mph - 0.00 in   Mostly Cloudy
11:58 PM 72.1 °F - 71.2 °F 97% 29.97 in 10.0 mi South 5.8 mph - N/A   Partly Cloudy